This is the latest recevied weather packets stored in our database for station/object s59zo-6. If no packets are shown the sender has not sent any weather packets the latest 10 day(s).
| Time | Temp. | Humidity | Pressure | Rain* | Wind** | Luminosity | Snow |
|---|---|---|---|---|---|---|---|
| 1787485205 | 24.44° C | 46% | 1023.7 hPa | 0 mm | - | - | - |
| 1787484904 | 23.89° C | 47% | 1023.8 hPa | 0 mm | - | - | - |
| 1787484605 | 23.89° C | 48% | 1023.8 hPa | 0 mm | - | - | - |
| 1787484304 | 23.33° C | 48% | 1023.7 hPa | 0 mm | - | - | - |
| 1787484004 | 23.33° C | 47% | 1023.8 hPa | 0 mm | - | - | - |
| 1787483705 | 23.89° C | 48% | 1023.9 hPa | 0 mm | - | - | - |
| 1787483404 | 23.89° C | 46% | 1023.8 hPa | 0 mm | - | - | - |
| 1787483104 | 24.44° C | 47% | 1024 hPa | 0 mm | - | - | - |
| 1787482805 | 23.89° C | 48% | 1024 hPa | 0 mm | - | - | - |
| 1787482504 | 23.89° C | 46% | 1023.9 hPa | 0 mm | - | - | - |
| 1787482204 | 23.89° C | 44% | 1024.1 hPa | 0 mm | - | - | - |
| 1787481904 | 23.89° C | 46% | 1024.1 hPa | 0 mm | - | - | - |
| 1787481604 | 23.89° C | 47% | 1024.3 hPa | 0 mm | - | - | - |
| 1787481304 | 23.89° C | 48% | 1024.3 hPa | 0 mm | - | - | - |
| 1787481005 | 23.89° C | 48% | 1024.1 hPa | 0 mm | - | - | - |
| 1787480704 | 23.33° C | 47% | 1024.3 hPa | 0 mm | - | - | - |
| 1787480405 | 23.33° C | 49% | 1024.4 hPa | 0 mm | - | - | - |
| 1787480104 | 23.33° C | 49% | 1024.5 hPa | 0 mm | - | - | - |
| 1787479804 | 23.33° C | 49% | 1024.5 hPa | 0 mm | - | - | - |
| 1787479504 | 23.33° C | 50% | 1024.5 hPa | 0 mm | - | - | - |
| 1787479205 | 23.33° C | 50% | 1024.5 hPa | 0 mm | - | - | - |
| 1787478904 | 23.33° C | 49% | 1024.5 hPa | 0 mm | - | - | - |
| 1787478605 | 23.33° C | 51% | 1024.6 hPa | 0 mm | - | - | - |
| 1787478304 | 22.78° C | 50% | 1024.7 hPa | 0 mm | - | - | - |
| 1787478005 | 22.78° C | 51% | 1024.7 hPa | 0 mm | - | - | - |
* Rain latest hour (hover to see other rain measurements)
** Current wind speed in m/s (hover to see current wind gust speed)